Weather History for Bellefontaine, OH

Change the Weather History Date:

Thursday, July 18, 2013

  Actual Average (KDAY) Record (KDAY)
Temperature  
Mean Temperature 79 °F 74 °F  
Max Temperature 89 °F 84 °F 98 °F (1894)
Min Temperature 69 °F 65 °F 51 °F (1911)
Degree Days  
Heating Degree Days 0 0  
Month to date heating degree days 0  
Since 1 June heating degree days 22  
Since 1 July heating degree days 0  
Cooling Degree Days 14 9  
Month to date cooling degree days 162  
Year to date cooling degree days 422  
Since 1 June cooling degree days 352  
Growing Degree Days 29 (Base 50)    
Moisture  
Dew Point 72 °F    
Average Humidity 78    
Maximum Humidity 100    
Minimum Humidity 49    
Precipitation  
Precipitation 0.00 in 0.12 in 1.47 in (1939)
Month to date precipitation 2.54  
Year to date precipitation 23.75  
Snow  
Snow 0.00 in 0.00 in 0.00 in ()
Month to date snowfall 0.0  
Since 1 June snowfall 0.0  
Since 1 July snowfall 0.0  
Snow Depth -    
Sea Level Pressure  
Sea Level Pressure 30.14 in    
Wind  
Wind Speed 2 mph (SW)    
Max Wind Speed 7 mph    
Max Gust Speed -    
Visibility 10 miles    
Events      
T = Trace of Precipitation, MM = Missing Value Source: NWS Daily Summary

Daily Weather History Graph

Daily Weather History Graph

Search for Another Location

Airport:

Trip Planner

Search our weather history database for the weather conditions in past years. The results will help you decide how hot, cold, wet, or windy it might be!

Date:

Astronomy

Jul. 18, 2013 Rise Set
Actual Time 6:20 AM EDT 9:02 PM EDT
Civil Twilight 5:48 AM EDT 9:33 PM EDT
Nautical Twilight 5:08 AM EDT 10:13 PM EDT
Astronomical Twilight 4:23 AM EDT 10:58 PM EDT
Moon 4:57 PM EDT (7/18) 2:10 AM EDT (7/18)
Length of Visible Light 15h 45m
Length of Day
14h 41m
Waxing Gibbous, 77% of the Moon is Illuminated
Jul 18
Waxing Gibbous
Jul 22
Full
Jul 29
Last Quarter
Aug 6
New
Aug 14
First Quarter

Hourly Weather History & Observations

Time (EDT) Temp. Heat Index Dew Point Humidity Pressure Visibility Wind Dir Wind Speed Gust Speed Precip Events Conditions
12:15 AM 73.4 °F - 71.6 °F 94% 30.22 in 10.0 mi Calm Calm - 0.00 in   Clear
12:35 AM 73.4 °F - 71.6 °F 94% 30.22 in 10.0 mi SSE 4.6 mph - 0.00 in   Clear
12:55 AM 73.4 °F - 71.6 °F 94% 30.21 in 10.0 mi Calm Calm - 0.00 in   Clear
1:15 AM 73.4 °F - 71.6 °F 94% 30.21 in 10.0 mi Calm Calm - 0.00 in   Clear
1:35 AM 71.6 °F - 71.6 °F 100% 30.21 in 10.0 mi Calm Calm - 0.00 in   Clear
1:55 AM 71.6 °F - 71.6 °F 100% 30.21 in 10.0 mi Calm Calm - 0.00 in   Clear
2:15 AM 71.6 °F - 71.6 °F 100% 30.21 in 10.0 mi Calm Calm - 0.00 in   Clear
2:35 AM 71.6 °F - 71.6 °F 100% 30.21 in 10.0 mi Calm Calm - 0.00 in   Clear
2:55 AM 71.6 °F - 71.6 °F 100% 30.21 in 10.0 mi Calm Calm - 0.00 in   Clear
3:15 AM 71.6 °F - 71.6 °F 100% 30.21 in 10.0 mi Calm Calm - 0.00 in   Clear
3:35 AM 71.6 °F - 71.6 °F 100% 30.21 in 10.0 mi Calm Calm - 0.00 in   Clear
3:55 AM 69.8 °F - 69.8 °F 100% 30.20 in 10.0 mi Calm Calm - 0.00 in   Clear
4:15 AM 69.8 °F - 69.8 °F 100% 30.19 in 9.0 mi Calm Calm - 0.00 in   Clear
4:35 AM 69.8 °F - 69.8 °F 100% 30.19 in 10.0 mi Calm Calm - 0.00 in   Clear
4:55 AM 71.6 °F - 71.6 °F 100% 30.19 in 10.0 mi Calm Calm - 0.00 in   Clear
5:15 AM 71.6 °F - 71.6 °F 100% 30.19 in 10.0 mi Calm Calm - 0.00 in   Clear
5:35 AM 69.8 °F - 69.8 °F 100% 30.19 in 10.0 mi Calm Calm - 0.00 in   Clear
5:55 AM 69.8 °F - 69.8 °F 100% 30.18 in 10.0 mi Calm Calm - 0.00 in   Clear
6:15 AM 69.8 °F - 69.8 °F 100% 30.19 in 9.0 mi Calm Calm - 0.00 in   Clear
6:35 AM 69.8 °F - 69.8 °F 100% 30.19 in 5.0 mi Calm Calm - 0.00 in   Clear
6:55 AM 69.8 °F - 69.8 °F 100% 30.19 in 5.0 mi Calm Calm - 0.00 in   Clear
7:15 AM 71.6 °F - 71.6 °F 100% 30.19 in 7.0 mi Calm Calm - 0.00 in   Clear
7:35 AM 73.4 °F - 73.4 °F 100% 30.19 in 8.0 mi Calm Calm - 0.00 in   Clear
7:55 AM 75.2 °F - 75.2 °F 100% 30.19 in 8.0 mi Calm Calm - 0.00 in   Clear
8:15 AM 75.2 °F - 73.4 °F 94% 30.20 in 9.0 mi Calm Calm - 0.00 in   Clear
8:35 AM 78.8 °F - 71.6 °F 78% 30.20 in 10.0 mi Calm Calm - 0.00 in   Clear
8:55 AM 78.8 °F - 71.6 °F 78% 30.20 in 10.0 mi Calm Calm - 0.00 in   Clear
9:15 AM 80.6 °F 85.4 °F 73.4 °F 79% 30.20 in 10.0 mi Calm Calm - 0.00 in   Clear
9:35 AM 80.6 °F 85.4 °F 73.4 °F 79% 30.19 in 10.0 mi Calm Calm - 0.00 in   Clear
9:55 AM 82.4 °F 88.2 °F 73.4 °F 74% 30.19 in 10.0 mi WSW 3.5 mph - 0.00 in   Clear
10:15 AM 82.4 °F 88.2 °F 73.4 °F 74% 30.19 in 10.0 mi Calm Calm - 0.00 in   Clear
10:35 AM 84.2 °F 90.9 °F 73.4 °F 70% 30.19 in 10.0 mi SW 3.5 mph - 0.00 in   Clear
10:55 AM 84.2 °F 90.9 °F 73.4 °F 70% 30.19 in 10.0 mi Calm Calm - 0.00 in   Clear
11:15 AM 84.2 °F 89.6 °F 71.6 °F 66% 30.19 in 10.0 mi Calm Calm - 0.00 in   Clear
11:35 AM 86.0 °F 91.8 °F 71.6 °F 62% 30.18 in 10.0 mi South 3.5 mph - 0.00 in   Partly Cloudy
11:55 AM 86.0 °F 91.8 °F 71.6 °F 62% 30.18 in 10.0 mi West 3.5 mph - 0.00 in   Scattered Clouds
12:15 PM 86.0 °F 90.4 °F 69.8 °F 58% 30.18 in 10.0 mi West 4.6 mph - 0.00 in   Mostly Cloudy
12:35 PM 87.8 °F 92.6 °F 69.8 °F 55% 30.17 in 10.0 mi WSW 6.9 mph - 0.00 in   Scattered Clouds
12:55 PM 86.0 °F 90.4 °F 69.8 °F 58% 30.17 in 10.0 mi Calm Calm - 0.00 in   Partly Cloudy
1:15 PM 87.8 °F 93.8 °F 71.6 °F 58% 30.17 in 10.0 mi WSW 5.8 mph - 0.00 in   Clear
1:35 PM 87.8 °F 92.6 °F 69.8 °F 55% 30.16 in 10.0 mi SW 4.6 mph - 0.00 in   Clear
1:55 PM 87.8 °F 93.8 °F 71.6 °F 58% 30.16 in 10.0 mi West 4.6 mph - 0.00 in   Partly Cloudy
2:15 PM 89.6 °F 94.7 °F 69.8 °F 52% 30.15 in 10.0 mi WSW 3.5 mph - 0.00 in   Clear
2:35 PM 89.6 °F 94.7 °F 69.8 °F 52% 30.14 in 10.0 mi WSW 6.9 mph - 0.00 in   Clear
2:55 PM 89.6 °F 94.7 °F 69.8 °F 52% 30.14 in 10.0 mi WNW 4.6 mph - 0.00 in   Scattered Clouds
3:15 PM 89.6 °F 94.7 °F 69.8 °F 52% 30.13 in 10.0 mi SSW 5.8 mph - 0.00 in   Partly Cloudy
3:35 PM 89.6 °F 96.2 °F 71.6 °F 55% 30.13 in 10.0 mi West 4.6 mph - 0.00 in   Scattered Clouds
3:55 PM 89.6 °F 94.7 °F 69.8 °F 52% 30.12 in 10.0 mi WSW 5.8 mph - 0.00 in   Partly Cloudy
4:15 PM 89.6 °F 94.7 °F 69.8 °F 52% 30.11 in 10.0 mi SSW 6.9 mph - 0.00 in   Clear
4:35 PM 89.6 °F 94.7 °F 69.8 °F 52% 30.10 in 10.0 mi Calm Calm - 0.00 in   Clear
4:55 PM 89.6 °F 94.7 °F 69.8 °F 52% 30.09 in 10.0 mi SW 6.9 mph - 0.00 in   Clear
5:15 PM 89.6 °F 93.4 °F 68.0 °F 49% 30.09 in 10.0 mi SSW 3.5 mph - 0.00 in   Clear
5:35 PM 89.6 °F 94.7 °F 69.8 °F 52% 30.08 in 10.0 mi SSW 5.8 mph - 0.00 in   Clear
5:55 PM 89.6 °F 94.7 °F 69.8 °F 52% 30.07 in 10.0 mi WSW 5.8 mph - 0.00 in   Clear
6:15 PM 89.6 °F 94.7 °F 69.8 °F 52% 30.06 in 10.0 mi SW 5.8 mph - 0.00 in   Clear
6:35 PM 89.6 °F 94.7 °F 69.8 °F 52% 30.05 in 10.0 mi SW 5.8 mph - 0.00 in   Clear
6:55 PM 87.8 °F 93.8 °F 71.6 °F 58% 30.05 in 10.0 mi SW 4.6 mph - 0.00 in   Clear
7:15 PM 87.8 °F 93.8 °F 71.6 °F 58% 30.05 in 10.0 mi SSW 4.6 mph - 0.00 in   Clear
7:35 PM 87.8 °F 95.6 °F 73.4 °F 62% 30.05 in 10.0 mi SSW 3.5 mph - 0.00 in   Clear
7:55 PM 86.0 °F 93.4 °F 73.4 °F 66% 30.05 in 10.0 mi Calm Calm - 0.00 in   Clear
8:15 PM 84.2 °F 92.3 °F 75.2 °F 74% 30.05 in 10.0 mi Calm Calm - 0.00 in   Clear
8:35 PM 82.4 °F 89.5 °F 75.2 °F 79% 30.05 in 10.0 mi Calm Calm - 0.00 in   Clear
8:55 PM 80.6 °F 85.4 °F 73.4 °F 79% 30.05 in 10.0 mi Calm Calm - 0.00 in   Clear
9:15 PM 78.8 °F - 73.4 °F 83% 30.05 in 10.0 mi Calm Calm - 0.00 in   Clear
9:35 PM 78.8 °F - 73.4 °F 83% 30.05 in 10.0 mi Calm Calm - 0.00 in   Clear
9:55 PM 78.8 °F - 75.2 °F 89% 30.06 in 10.0 mi South 3.5 mph - 0.00 in   Clear
10:15 PM 77.0 °F - 75.2 °F 94% 30.06 in 10.0 mi SSE 4.6 mph - 0.00 in   Clear
10:35 PM 78.8 °F - 73.4 °F 83% 30.07 in 10.0 mi SSE 4.6 mph - 0.00 in   Scattered Clouds
10:55 PM 78.8 °F - 73.4 °F 83% 30.06 in 10.0 mi South 4.6 mph - 0.00 in   Mostly Cloudy
11:15 PM 77.0 °F - 73.4 °F 89% 30.06 in 10.0 mi South 4.6 mph - 0.00 in   Scattered Clouds
11:35 PM 77.0 °F - 73.4 °F 89% 30.06 in 10.0 mi South 5.8 mph - 0.00 in   Scattered Clouds
11:55 PM 75.2 °F - 73.4 °F 94% 30.05 in 10.0 mi South 4.6 mph - 0.00 in   Clear